Tracking 29892 objects as of 21-Nov-2024
HD Live streaming from Space Station
objects crossing your sky now

BREEZE-M DEB (TANK)

Track BREEZE-M DEB (TANK) now!


NORAD ID: 42908
Int'l Code: 2017-046B
Perigee: 461.0 km
Apogee: 34,213.3 km
Inclination: 48.6 °
Period: 605.5 minutes
Semi major axis: 23708 km
RCS: Unknown
Launch date: August 16, 2017
Source: Commonwealth of Independent States (former USSR) (CIS)
Launch site: TYURATAM MISSILE AND SPACE COMPLEX (TTMTR)

Note: This is SATELLITE DEBRIS
Your satellite tracking list
Your tracking list is empty




NASA's NSSDC Master Catalog

Two Line Element Set (TLE):
1 42908U 17046B   24326.02712731  .00000483  00000-0  27428-2 0  9991
2 42908  48.6033 299.9782 7118278 300.8368   8.1084  2.37824278 61558
Source of the keplerian elements: AFSPC